Regional Weather Roundup
Issued by NWS

Home | Current Version | Previous Version | Text Only | Print | Product List | Glossary On
Versions: 1 2 3 4 5 6 7 8 9 10 11 12 13 14 15 16 17 18 19 20 21 22 23 24 25 26 27 28 29 30 31 32 33 34 35 36 37 38 39 40 41 42 43 44 45 46 47 48 49 50
190
ASUS44 KLIX 010611
RWRLA
LOUISIANA WEATHER ROUNDUP
NATIONAL WEATHER SERVICE NEW ORLEANS LA
100 AM CDT SUN MAY 01 2016

NOTE: "FAIR" INDICATES FEW OR NO CLOUDS BELOW 12,000 FEET WITH NO
      SIGNIFICANT WEATHER AND/OR OBSTRUCTIONS TO VISIBILITY.
      SKY/WX - SKY CONDITION AND SIGNIFICANT WEATHER.
      TMP - AIR TEMPERATURE.    DP   - DEWPOINT TEMPERATURE.
      RH  - RELATIVE HUMIDITY.  PRES - PRESSURE.
      HX  - HEAT INDEX.         WCI  - WIND CHILL INDEX.

*  THESE STATIONS ARE NOT NWS OR FAA STATIONS AND ARE NOT UNDER
   NWS QUALITY CONTROL.

LAZ040-048-061>063-065-066-069-010700-
SOUTHEAST LOUISIANA

CITY           SKY/WX    TMP DP  RH WIND       PRES   REMARKS
N.O. AUDUBON     N/A     72  66  81 MISG        N/A
6HR MIN TEMP:  70; 6HR MAX TEMP:  73;

N.O. INTL ARPT PTCLDY    70  66  87 CALM      29.87S
6HR MIN TEMP:  70; 6HR MAX TEMP:  72;

N.O. LAKEFRONT CLEAR     67  67 100 SE6       29.88R
6HR MIN TEMP:  66; 6HR MAX TEMP:  68;

N.O. DOWNTOWN* FAIR      74  65  73 VRB6      29.88R
6HR MIN TEMP:  71; 6HR MAX TEMP:  74;

RESERVE*       FAIR      71  67  87 CALM      29.86S
6HR MIN TEMP:  71; 6HR MAX TEMP:  73;

SLIDELL        CLEAR     65  65 100 CALM      29.88S
6HR MIN TEMP:  65; 6HR MAX TEMP:  72;

BATON ROUGE    CLEAR     68  65  90 E3        29.86S
6HR MIN TEMP:  68; 6HR MAX TEMP:  74;

BOOTHVILLE     CLEAR     75  68  78 SE8       29.89R
6HR MIN TEMP:  68; 6HR MAX TEMP:  76; 6HR PCP:  0.11;

BELLE CHASSE   CLEAR     72  66  81 SE6       29.87S
6HR MIN TEMP:  70; 6HR MAX TEMP:  72; 6HR PCP:  0.33;

BOGALUSA*      FAIR      66  63  90 CALM      29.91S
6HR MIN TEMP:  65; 6HR MAX TEMP:  70;

GALLIANO*      CLEAR     77  69  74 SE9       29.86F
6HR MIN TEMP:  64; 6HR MAX TEMP:  78; 6HR PCP:  0.20;

NEW ROADS*     FAIR      70  68  93 CALM      29.86S
6HR MIN TEMP:  70; 6HR MAX TEMP:  74;

GONZALES*      FAIR      71  69  93 CALM      29.85F
6HR MIN TEMP:  69; 6HR MAX TEMP:  72;

HAMMOND*       PTCLDY    68  64  88 CALM      29.88R
HOUMA*         CLEAR     75  69  81 SE10      29.86S
6HR MIN TEMP:  72; 6HR MAX TEMP:  75;

PORT FOURCHON* CLEAR     77  70  78 SE15G23   29.87S

$$

LAZ041-044-053-054-010700-
SOUTHWEST LOUISIANA

CITY           SKY/WX    TMP DP  RH WIND       PRES   REMARKS
LAKE CHARLES   CLOUDY    77  75  93 S8        29.82S
6HR MIN TEMP:  77; 6HR MAX TEMP:  80; 6HR PCP:  0.01;

LAFAYETTE      TSTM      74  71  91 S8        29.85S FOG
6HR MIN TEMP:  74; 6HR MAX TEMP:  77; 6HR PCP:  0.13;

PATTERSON      NOT AVBL
SALT POINT       N/A     75  72  90 SE9       29.83
6HR MIN TEMP:  73; 6HR MAX TEMP:  75;

NEW IBERIA     CLOUDY    74  71  91 SE9       29.85S
6HR MIN TEMP:  73; 6HR MAX TEMP:  75; 6HR PCP:  0.06;

CHENAULT AIRPK RAIN      76  75  96 S7        29.82S
6HR MIN TEMP:  76; 6HR MAX TEMP:  80;


$$

LAZ027-028-010700-
CENTRAL LOUISIANA

CITY           SKY/WX    TMP DP  RH WIND       PRES   REMARKS
FORT POLK      CLOUDY    76  74  93 SE8       29.83S
6HR MIN TEMP:  75; 6HR MAX TEMP:  82;

ALEXANDRIA INT CLOUDY    75  72  90 S8        29.83R
6HR MIN TEMP:  75; 6HR MAX TEMP:  80;

ALEXANDRIA     CLOUDY    74  70  87 SE5       29.86R
6HR MIN TEMP:  74; 6HR MAX TEMP:  82;


$$

LAZ001-002-010700-
NORTHWEST LOUISIANA

CITY           SKY/WX    TMP DP  RH WIND       PRES   REMARKS
SHREVEPORT     CLOUDY    74  67  78 NW9       29.83R
6HR MIN TEMP:  73; 6HR MAX TEMP:  81;

BARKSDALE AFB  CLOUDY    72  69  89 NW6       29.83R
6HR MIN TEMP:  70; 6HR MAX TEMP:  79;

DTN SHREVEPORT CLOUDY    73  67  81 NW7       29.83S
6HR MIN TEMP:  72; 6HR MAX TEMP:  80;


$$

LAZ014-016-010700-
NORTHEAST LOUISIANA

CITY           SKY/WX    TMP DP  RH WIND       PRES   REMARKS
MONROE         PTCLDY    72  69  90 S5        29.85S
6HR MIN TEMP:  72; 6HR MAX TEMP:  79;

TALLULAH       PTCLDY    70  66  87 SE10      29.87S
6HR MIN TEMP:  70; 6HR MAX TEMP:  76;


$$





USA.gov is the U.S. government's official web portal to all federal, state and local government web resources and services.